TimeIST,TemperatureF,Dew PointF,Humidity,Sea Level PressureIn,VisibilityMPH,Wind Direction,Wind SpeedMPH,Gust SpeedMPH,PrecipitationIn,Events,Conditions,WindDirDegrees,DateUTC
12:00 AM,51.8,50.0,94,30.01,-9999.0,Calm,Calm,-,N/A,,Scattered Clouds,0,2012-12-11 18:30:00
12:30 AM,53.6,50.0,88,30.01,-9999.0,Calm,Calm,-,N/A,,Scattered Clouds,0,2012-12-11 19:00:00
1:00 AM,51.8,50.0,94,30.01,-9999.0,Calm,Calm,-,N/A,,Scattered Clouds,0,2012-12-11 19:30:00
1:30 AM,50.0,50.0,100,29.98,-9999.0,Calm,Calm,-,N/A,,Scattered Clouds,0,2012-12-11 20:00:00
2:00 AM,51.8,48.2,88,29.98,-9999.0,Calm,Calm,-,N/A,,Scattered Clouds,0,2012-12-11 20:30:00
2:30 AM,50.0,48.2,94,29.98,-9999.0,Calm,Calm,-,N/A,,Scattered Clouds,0,2012-12-11 21:00:00
3:00 AM,48.2,48.2,100,29.98,-9999.0,Calm,Calm,-,N/A,,Scattered Clouds,0,2012-12-11 21:30:00
4:00 AM,48.2,48.2,100,29.98,1.9,Calm,Calm,-,N/A,,Scattered Clouds,0,2012-12-11 22:30:00
5:00 AM,48.2,48.2,100,29.98,1.9,Calm,Calm,-,N/A,,Scattered Clouds,0,2012-12-11 23:30:00
5:30 AM,47,47,100,29.99,1,Calm,Calm,,,,Mist,,2012-12-12 00:00:00
5:30 AM,46.4,46.4,100,29.98,1.9,Calm,Calm,-,N/A,,Scattered Clouds,0,2012-12-12 00:00:00
6:00 AM,46.4,46.4,100,29.98,1.9,Calm,Calm,-,N/A,,Scattered Clouds,0,2012-12-12 00:30:00
7:00 AM,46.4,46.4,100,29.98,1.9,Calm,Calm,-,N/A,,Scattered Clouds,0,2012-12-12 01:30:00
7:30 AM,44.6,44.6,100,30.01,1.9,Calm,Calm,-,N/A,,Scattered Clouds,0,2012-12-12 02:00:00
8:30 AM,50,50,98,30.02,2,Calm,Calm,,,,Mist,,2012-12-12 03:00:00
8:30 AM,50.0,50.0,100,30.01,2.5,Calm,Calm,-,N/A,,Scattered Clouds,0,2012-12-12 03:00:00
9:30 AM,53.6,51.8,94,30.04,3.1,Variable,2.3,-,N/A,,Mostly Cloudy,0,2012-12-12 04:00:00
10:00 AM,57.2,51.8,82,30.04,3.1,Calm,Calm,-,N/A,,Mostly Cloudy,0,2012-12-12 04:30:00
10:30 AM,59.0,51.8,77,30.04,3.7,Calm,Calm,-,N/A,,Scattered Clouds,0,2012-12-12 05:00:00
11:00 AM,60.8,51.8,72,30.04,3.7,Calm,Calm,-,N/A,,Scattered Clouds,0,2012-12-12 05:30:00
11:30 AM,65,49,45,30.03,2,Calm,Calm,,,,Scattered Clouds,,2012-12-12 06:00:00
11:30 AM,64.4,48.2,56,30.04,3.7,Calm,Calm,-,N/A,,Scattered Clouds,0,2012-12-12 06:00:00
12:00 PM,64.4,46.4,52,30.04,3.7,Calm,Calm,-,N/A,,Mostly Cloudy,0,2012-12-12 06:30:00
12:30 PM,64.4,46.4,52,30.01,3.7,Calm,Calm,-,N/A,,Mostly Cloudy,0,2012-12-12 07:00:00
1:00 PM,64.4,44.6,49,30.01,3.7,Calm,Calm,-,N/A,,Overcast,0,2012-12-12 07:30:00
1:30 PM,66.2,44.6,46,30.01,3.7,Calm,Calm,-,N/A,,Mostly Cloudy,0,2012-12-12 08:00:00
2:00 PM,66.2,46.4,49,29.98,3.7,Calm,Calm,-,N/A,,Mostly Cloudy,0,2012-12-12 08:30:00
2:30 PM,68,44,31,29.97,2,Calm,Calm,,,,Partly Cloudy,,2012-12-12 09:00:00
2:30 PM,68.0,44.6,43,29.98,3.7,Calm,Calm,-,N/A,,Mostly Cloudy,0,2012-12-12 09:00:00
3:00 PM,66.2,46.4,49,29.98,3.7,Calm,Calm,-,N/A,,Mostly Cloudy,0,2012-12-12 09:30:00
3:30 PM,66.2,62.6,88,29.95,3.7,Calm,Calm,-,N/A,,Mostly Cloudy,0,2012-12-12 10:00:00
4:00 PM,66.2,46.4,49,29.95,3.7,Calm,Calm,-,N/A,,Mostly Cloudy,0,2012-12-12 10:30:00
5:00 PM,64.4,48.2,56,29.95,3.1,Calm,Calm,-,N/A,,Haze,0,2012-12-12 11:30:00
5:30 PM,64,48,45,29.94,1,Calm,Calm,,,,Haze,,2012-12-12 12:00:00
5:30 PM,64.4,48.2,56,29.95,3.1,Calm,Calm,-,N/A,,Haze,0,2012-12-12 12:00:00
6:30 PM,62.6,48.2,59,29.95,2.5,Calm,Calm,-,N/A,,Haze,0,2012-12-12 13:00:00
7:00 PM,60.8,48.2,63,29.95,2.5,Calm,Calm,-,N/A,,Haze,0,2012-12-12 13:30:00
7:30 PM,59.0,50.0,72,29.98,2.5,Calm,Calm,-,N/A,,Haze,0,2012-12-12 14:00:00
8:00 PM,59.0,50.0,72,29.98,2.5,Calm,Calm,-,N/A,,Haze,0,2012-12-12 14:30:00
8:30 PM,57.2,50.0,77,29.98,2.5,Calm,Calm,-,N/A,,Haze,0,2012-12-12 15:00:00
9:00 PM,57.2,50.0,77,29.98,2.5,Calm,Calm,-,N/A,,Haze,0,2012-12-12 15:30:00
9:30 PM,57.2,53.6,88,29.98,2.5,Calm,Calm,-,N/A,,Haze,0,2012-12-12 16:00:00
10:00 PM,55.4,51.8,88,30.01,2.5,Calm,Calm,-,N/A,,Scattered Clouds,0,2012-12-12 16:30:00
10:30 PM,55.4,51.8,88,30.01,2.5,Variable,2.3,-,N/A,,Scattered Clouds,0,2012-12-12 17:00:00
11:00 PM,55.4,51.8,88,30.01,2.5,Calm,Calm,-,N/A,,Scattered Clouds,0,2012-12-12 17:30:00
11:30 PM,56,51,77,30.01,1,Calm,Calm,,,,Mist,,2012-12-12 18:00:00